Aeroporto :
LOGIN :

Iscrizione | Disclaimer

   EN    FR    IT 

 










Sommario :    VFR   VFR Marginale   IFR   IFR Intensivo   IFR Molto Intensivo
Visibilità : 
Base nubi : 
>= 8 km
>= 3000ft
5 / 8 km
1000 / 3000 ft
1500m / 5 km
500 / 1000 ft
800 / 1500m
200 / 500 ft
< 800m
< 200 ft
Simboli :   Temporali  Nebbia  Neve Forte  Precipitazioni Forti  Vento > 20 kt
SIGMETs :   Varie  Temporali  Ghiacco  Turbolenza  Onda orograficha  Ceneri Vulcaniche






- Altitudine del aeroporto : 187 ft


ETNW - Wunstorf AB

ULTIMO METAR :
  • 081220Z VRB02KT 9999 FEW060 BKN300 22/06 Q1024 BLU+BLU+

METARs OBSOLETI :
  • 081120Z 27002KT 9999 BKN300 21/07 Q1025 BLU+BLU+
  • 081020Z VRB02KT 9999 FEW120 BKN300 20/07 Q1025 BLU+BLU+

TAF TAF ETNW
Valido dal 08 a 11 ore il 09 a 11 ore UTC


081010Z 0811/0911 12006KT 9999 NSW FEW120 SCT280
BECMG 0812/0815 30005KT 9999 NSW FEW100 SCT240
PROB30 0823/0906 VRB02KT 5000 BR FEW240
BECMG 0908/0910 34010KT 9999 NSW SCT040 BY ETGL



MetMap, La meteo Aeronautica in un colpo d'occhio ! - Copyright ORBIFLY Dicembre 2007 - Disclaimer

ORBIFLY MET'MAP TEAM :

Programmazione e sviluppo : Alexandra Zaïnal
Concezione : Baudouin d'Aumeries
Aiuto per la programmazione : Marc-Olivier Méhu
Supporto tecnico e logistico : Manuel Goepfert
Aiuto per la traduzione : Arnaldo La Scala

Contatto : metmap@orbifly.com




FONTI E CREDITI :

   NOAA